MMS 3

Last updated on Thu Oct 30 2025 00:02:41 GMT+0000 (Coordinated Universal Time)

1 40484U 15011C 25302.58336806 -.00000548 00000+0 00000+0 0 9995 2 40484 68.3204 352.3144 8562481 162.3552 177.4720 0.28363543 1378
UTC large
Height (km)
Speed (km/s)
/
Latitude / Longitude
Inclination (degrees)
Orbital Period (minutes)
Azimuth
Elevation
Range (km)
Doppler Factor

Next 0 passes for location: London (51.5072 / 0.1276)

Sorry there are no passes over London.